TELSTAR 18V (APSTAR 5C) (43611 NORAD) Tracking and Keplerian Element Data

This shows tracking and keplerian element data for the satellite.

Feedback or suggestion? Click here.




ElementValue
Catalog43611
NameTELSTAR 18V (APSTAR 5C)
Epoch Orbit332
Epoch Day203.00754633
Epoch Year2019
RAAN58.0251
Inclination0.0077
Eccentricity7.57E-05
Argument of Perigee34.3498
Mean Anonmoly347.7862
Mean Motion1.00271617
Decay Rate-2.96E-06
L11 43611U 18069A 19203.00754633 -.00000296 00000-0 00000+0 0 9999
L22 43611 0.0077 58.0251 0000757 34.3498 347.7862 1.00271617 3322

Live tracking and technical data element details for TELSTAR 18V (APSTAR 5C) (NORAD 43611). TELSTAR 18V (APSTAR 5C) can be tracked NOW for your location showing map with azimuth and elevation plus other details from your city location.

Track the satellite on the map from your city or location and see movement details for azimuth, elevation, latitude, longitude, range, height, and movement on the map or in text.







IsCatalogInMostPopularTable: catalog: 43611, numindb: 258
Update: records affected: 1



GetName: 43611 TELSTAR 18V (APSTAR 5C)

Hit Count: updated at: Mon, 22 Jul 2019 16:33:56 GMT